Cosmos 1400 Rocket - Orbit

View from above orbital plane
View from above orbital plane
View from above satellite
View from above satellite

Ground track
Ground track

The orbit data is extracted from the following two-line orbital elements,

1 13403U 82079B   13140.52104406  .00001645  00000-0  12254-3 0  2972
2 13403 081.1700 169.4145 0038928 128.7707 231.7003 15.01776925672859
Epoch (UTC): 20 May 2013 12:30:18
Eccentricity: 0.0038928
inclination: 81.1700°
perigee height: 534 km
apogee height: 588 km
right ascension of ascending node: 169.4145°
argument of perigee: 128.7707°
revolutions per day: 15.01776925
mean anomaly at epoch: 231.7003°
orbit number at epoch: 67285

The dashed part of the orbit path shows where the satellite is in the earth's shadow,  

Developed and maintained by Chris Peat, Heavens-Above GmbH. Please read the updated FAQ before sending e-mail. Imprint. DLR